Weather History for KLNS - January, 2009

Change the Weather History Date:

Monday, January 5, 2009

  Actual Average Record
Temperature  
Mean Temperature 39 °F -  
Max Temperature 44 °F 40 °F 63 °F (1993)
Min Temperature 32 °F 23 °F 7 °F (1981)
Degree Days  
Heating Degree Days 26    
Moisture  
Dew Point 23 °F    
Average Humidity 56    
Maximum Humidity 79    
Minimum Humidity 39    
Precipitation  
Precipitation 0.00 in - - ()
Sea Level Pressure  
Sea Level Pressure 30.01 in    
Wind  
Wind Speed 6 mph (WNW)    
Max Wind Speed 17 mph    
Max Gust Speed 24 mph    
Visibility 10 miles    
Events      
Averages and records for this station are not official NWS values.
T = Trace of Precipitation, MM = Missing Value Source: NWS Daily Summary

Daily Weather History Graph

Daily Weather History Graph

Search for Another Location

Airport or City:

Trip Planner

Search our weather history database for the weather conditions in past years. The results will help you decide how hot, cold, wet, or windy it might be!

Date:

Astronomy

Jan. 05, 2009 Rise Set
Actual Time 7:27 AM EST 4:54 PM EST
Civil Twilight 6:57 AM EST 5:24 PM EST
Nautical Twilight 6:23 AM EST 5:58 PM EST
Astronomical Twilight 5:50 AM EST 6:31 PM EST
Moon 11:52 AM EST (1/5) 1:17 AM EST (1/5)
Length of Visible Light 10h 27m
Length of Day
9h 26m
Waxing Gibbous, 63% of the Moon is Illuminated
Jan 5
Waxing Gibbous
Jan 10
Full
Jan 17
Last Quarter
Jan 26
New
Feb 2
First Quarter

Hourly Weather History & Observations

Time (EST) Temp. Windchill Dew Point Humidity Pressure Visibility Wind Dir Wind Speed Gust Speed Precip Events Conditions
12:53 AM 39.0 °F - 21.9 °F 50% 29.98 in 10.0 mi Calm Calm - N/A   Overcast
1:53 AM 37.9 °F - 26.1 °F 62% 29.96 in 10.0 mi Calm Calm - 0.00 in   Overcast
2:53 AM 37.9 °F 35.5 °F 27.0 °F 65% 29.98 in 10.0 mi WNW 3.5 mph - N/A   Overcast
3:53 AM 37.9 °F - 26.1 °F 62% 29.96 in 10.0 mi Calm Calm - N/A   Overcast
4:53 AM 37.9 °F 33.5 °F 26.1 °F 62% 29.97 in 10.0 mi West 5.8 mph - N/A   Overcast
5:53 AM 37.0 °F 31.6 °F 25.0 °F 62% 29.97 in 10.0 mi West 6.9 mph - N/A   Overcast
6:53 AM 34.0 °F 28.0 °F 25.0 °F 70% 29.99 in 10.0 mi West 6.9 mph - N/A   Clear
7:16 AM 35.6 °F 30.7 °F 26.6 °F 70% 29.99 in 10.0 mi WNW 5.8 mph - N/A   Mostly Cloudy
7:53 AM 39.9 °F 33.9 °F 34.0 °F 79% 30.00 in 10.0 mi NW 9.2 mph - N/A   Scattered Clouds
8:53 AM 41.0 °F 33.9 °F 34.0 °F 76% 30.02 in 10.0 mi WNW 12.7 mph - N/A   Scattered Clouds
9:53 AM 41.0 °F 33.5 °F 30.9 °F 67% 30.03 in 10.0 mi NW 13.8 mph 24.2 mph N/A   Clear
10:53 AM 42.1 °F 35.7 °F 30.0 °F 62% 30.04 in 10.0 mi NW 11.5 mph - N/A   Clear
11:53 AM 43.0 °F 36.0 °F 28.9 °F 58% 30.01 in 10.0 mi WNW 13.8 mph - N/A   Clear
12:53 PM 44.1 °F 37.1 °F 27.0 °F 51% 29.99 in 10.0 mi WNW 15.0 mph 23.0 mph N/A   Clear
1:53 PM 43.0 °F 35.7 °F 25.0 °F 49% 29.99 in 10.0 mi NW 15.0 mph 21.9 mph N/A   Clear
2:53 PM 42.1 °F 33.9 °F 23.0 °F 47% 29.99 in 10.0 mi NW 17.3 mph - N/A   Clear
3:53 PM 41.0 °F 34.3 °F 21.0 °F 45% 29.99 in 10.0 mi NW 11.5 mph - N/A   Clear
4:53 PM 37.9 °F 35.5 °F 19.9 °F 48% 30.00 in 10.0 mi NW 3.5 mph - N/A   Clear
5:53 PM 37.0 °F 32.4 °F 18.0 °F 46% 30.02 in 10.0 mi WNW 5.8 mph - N/A   Mostly Cloudy
6:53 PM 37.9 °F 31.5 °F 16.0 °F 41% 30.04 in 10.0 mi NW 9.2 mph - N/A   Overcast
7:53 PM 37.9 °F 32.1 °F 16.0 °F 41% 30.05 in 10.0 mi WNW 8.1 mph - N/A   Overcast
8:53 PM 37.0 °F 31.6 °F 14.0 °F 39% 30.06 in 10.0 mi WNW 6.9 mph - N/A   Overcast
9:53 PM 35.1 °F 29.3 °F 14.0 °F 42% 30.04 in 10.0 mi NW 6.9 mph - N/A   Overcast
10:53 PM 34.0 °F 31.0 °F 15.1 °F 46% 30.05 in 10.0 mi WSW 3.5 mph - N/A   Scattered Clouds
11:53 PM 32.0 °F 27.5 °F 15.1 °F 50% 30.04 in 10.0 mi WSW 4.6 mph - N/A   Partly Cloudy